CYGL

La Grande Riviere Airport

ICAO Code CYGL
IATA Code YGL
Name La Grande Riviere Airport
Location La Grande Riviere, Quebec, CA
Elevation 640 Feet / 195.1 Meters
Latitude 53.62527778
Longitude -77.70416667
METAR CYGL 012300Z 27013KT 15SM SCT045 BKN073 OVC091 14/10 A2991 RMK SC4AC2AC2 SLP139 DENSITY ALT 700FT
Extra information Display Charts and CFS
Display NOTAMS
Runway Length Width Surface Elevation
13 6487 ft 150 ft ASP 595 ft
31 6487 ft 150 ft ASP 640 ft

Mandatory Routes

La Grande Riviere Airport

Direction Destination Level Remark Type Route
DEP TO CYUL H&L RNAV OBRET